User: anonymous   Login
Location: Unspecified
(0.0000°N, 0.0000°E)
Time: 21:46:06
(UTC+00:00)
Language:

CAPE 1 - Orbit

View from above orbital plane
View from above orbital plane
View from above satellite
View from above satellite

Ground track
Ground track

The orbit data is extracted from the following two-line orbital elements,

1 31130U 07012P   18048.81497240 +.00000114 +00000-0 +34410-4 0  9996
2 31130 098.1119 355.6378 0096620 156.2144 204.3565 14.56251183575000
Epoch (UTC): 17 February 2018 19:33:33
Eccentricity: 0.0096620
inclination: 98.1119°
perigee height: 637 km
apogee height: 774 km
right ascension of ascending node: 355.6378°
argument of perigee: 156.2144°
revolutions per day: 14.56251183
mean anomaly at epoch: 204.3565°
orbit number at epoch: 57500

The dashed part of the orbit path shows where the satellite is in the earth's shadow,  

DLR